• In Hungary
  • List of Countries
  • For 7 days
  • Water Temperature
  • Satellite Maps
  • Weather Map
  • News
  • Weather Widgets
  • user-avatar
    Login

    Hourly Weather Gorzyce

    Today, 13 December, Wednesday

    Time Temperature Precipitation Wind Pressure Humidity
    00:00 +3°C° 0 mm 2 mps 740 mmHg 74%
    01:00 +2°C° 0 mm 3 mps 740 mmHg 76%
    02:00 +2°C° 0 mm 2 mps 740 mmHg 77%
    03:00 +2°C° 0 mm 2 mps 740 mmHg 79%
    04:00 +2°C° 0 mm 2 mps 741 mmHg 81%
    05:00 +1°C° 0 mm 2 mps 741 mmHg 83%
    06:00 +1°C° 0 mm 2 mps 741 mmHg 84%
    07:00 -1°C° 0 mm 2 mps 741 mmHg 86%
    08:00 +1°C° 0 mm 2 mps 741 mmHg 83%
    09:00 +2°C° 0 mm 2 mps 741 mmHg 80%
    10:00 +2°C° 0 mm 2 mps 742 mmHg 77%
    11:00 +3°C° 0 mm 2 mps 741 mmHg 73%
    12:00 +2°C° 0 mm 3 mps 741 mmHg 69%
    13:00 +2°C° 0 mm 3 mps 740 mmHg 65%
    14:00 +2°C° 0 mm 3 mps 740 mmHg 69%
    15:00 +1°C° 0 mm 3 mps 739 mmHg 72%
    16:00 0°C° 0 mm 3 mps 739 mmHg 76%
    17:00 0°C° 0 mm 3 mps 738 mmHg 77%
    18:00 -1°C° 0 mm 3 mps 738 mmHg 78%
    19:00 -1°C° 0 mm 3 mps 737 mmHg 79%
    20:00 -2°C° 0 mm 4 mps 736 mmHg 76%
    21:00 -2°C° 0 mm 4 mps 736 mmHg 73%
    22:00 -2°C° 0 mm 4 mps 735 mmHg 70%
    23:00 -2°C° 0 mm 5 mps 734 mmHg 69%

    Tomorrow, 14 December, Thursday

    Time Temperature Precipitation Wind Pressure Humidity
    00:00 -1°C° 0 mm 5 mps 733 mmHg 67%
    01:00 -2°C° 0 mm 6 mps 732 mmHg 66%
    02:00 -2°C° 0 mm 6 mps 731 mmHg 68%
    03:00 -1°C° 0 mm 6 mps 730 mmHg 70%
    04:00 -1°C° 0 mm 6 mps 729 mmHg 73%
    05:00 -1°C° 0.1 mm 6 mps 729 mmHg 74%
    06:00 0°C° 0.1 mm 7 mps 728 mmHg 75%
    07:00 0°C° 0.1 mm 7 mps 727 mmHg 76%
    08:00 +2°C° 0 mm 7 mps 728 mmHg 74%
    09:00 +1°C° 0 mm 8 mps 728 mmHg 73%
    10:00 +2°C° 0 mm 8 mps 728 mmHg 72%
    11:00 +2°C° 0.1 mm 8 mps 728 mmHg 67%
    12:00 +2°C° 0.1 mm 8 mps 729 mmHg 62%
    13:00 +3°C° 0.1 mm 9 mps 729 mmHg 58%
    14:00 +2°C° 0 mm 8 mps 729 mmHg 57%
    15:00 +2°C° 0 mm 7 mps 730 mmHg 55%
    16:00 -1°C° 0 mm 6 mps 730 mmHg 54%
    17:00 0°C° 0 mm 5 mps 731 mmHg 58%
    18:00 0°C° 0 mm 5 mps 731 mmHg 62%
    19:00 -1°C° 0 mm 4 mps 731 mmHg 65%
    20:00 -1°C° 0 mm 4 mps 731 mmHg 67%
    21:00 -1°C° 0 mm 4 mps 731 mmHg 68%
    22:00 -1°C° 0 mm 4 mps 731 mmHg 69%
    23:00 -1°C° 0 mm 4 mps 730 mmHg 70%

    Day after tomorrow, 15 December, Friday

    Time Temperature Precipitation Wind Pressure Humidity
    00:00 -1°C° 0 mm 4 mps 730 mmHg 70%
    01:00 -1°C° 0 mm 4 mps 729 mmHg 70%
    02:00 0°C° 0.1 mm 5 mps 728 mmHg 72%
    03:00 0°C° 0.1 mm 5 mps 728 mmHg 74%
    04:00 -1°C° 0.1 mm 6 mps 727 mmHg 76%
    05:00 0°C° 0 mm 5 mps 727 mmHg 78%
    06:00 0°C° 0 mm 5 mps 727 mmHg 79%
    07:00 0°C° 0 mm 4 mps 726 mmHg 81%
    08:00 +1°C° 0 mm 5 mps 727 mmHg 80%
    09:00 +1°C° 0 mm 6 mps 727 mmHg 79%
    10:00 +2°C° 0 mm 6 mps 728 mmHg 78%
    11:00 +2°C° 0 mm 6 mps 728 mmHg 75%
    12:00 +3°C° 0 mm 5 mps 728 mmHg 72%
    13:00 +4°C° 0 mm 4 mps 729 mmHg 69%
    14:00 +3°C° 0 mm 4 mps 729 mmHg 72%
    15:00 +2°C° 0 mm 3 mps 730 mmHg 75%
    16:00 +3°C° 0 mm 2 mps 730 mmHg 78%
    17:00 +2°C° 0 mm 2 mps 730 mmHg 79%
    18:00 +2°C° 0 mm 2 mps 730 mmHg 80%
    19:00 +1°C° 0 mm 2 mps 730 mmHg 81%
    20:00 +2°C° 0 mm 1 mps 730 mmHg 81%
    21:00 +2°C° 0 mm 1 mps 730 mmHg 81%
    22:00 +2°C° 0 mm 1 mps 730 mmHg 81%
    23:00 +1°C° 0 mm 0 mps 730 mmHg 80%

    16 December, Saturday

    Time Temperature Precipitation Wind Pressure Humidity
    00:00 +1°C° 0 mm 0 mps 730 mmHg 79%
    01:00 +1°C° 0 mm 0 mps 730 mmHg 78%
    02:00 +1°C° 0 mm 0 mps 729 mmHg 78%
    03:00 +2°C° 0 mm 1 mps 729 mmHg 78%
    04:00 +2°C° 0 mm 1 mps 729 mmHg 78%
    05:00 +2°C° 0 mm 1 mps 729 mmHg 78%
    06:00 +2°C° 0 mm 1 mps 729 mmHg 77%
    07:00 +2°C° 0 mm 1 mps 730 mmHg 77%
    08:00 +2°C° 0.1 mm 1 mps 730 mmHg 76%
    09:00 +2°C° 0.1 mm 1 mps 730 mmHg 75%
    10:00 +2°C° 0.1 mm 2 mps 731 mmHg 75%
    11:00 +2°C° 0.1 mm 2 mps 731 mmHg 75%
    12:00 +2°C° 0.1 mm 3 mps 731 mmHg 75%
    13:00 +2°C° 0.1 mm 3 mps 732 mmHg 76%
    14:00 +2°C° 0.2 mm 3 mps 732 mmHg 79%
    15:00 +1°C° 0.2 mm 3 mps 733 mmHg 82%
    16:00 +1°C° 0.2 mm 3 mps 733 mmHg 85%
    17:00 +1°C° 0.1 mm 3 mps 734 mmHg 86%
    18:00 0°C° 0.1 mm 3 mps 734 mmHg 86%
    19:00 +1°C° 0.1 mm 2 mps 735 mmHg 86%
    20:00 0°C° 0 mm 3 mps 736 mmHg 86%
    21:00 0°C° 0 mm 3 mps 736 mmHg 86%
    22:00 -1°C° 0 mm 3 mps 737 mmHg 86%
    23:00 -1°C° 0 mm 3 mps 737 mmHg 86%

    17 December, Sunday

    Time Temperature Precipitation Wind Pressure Humidity
    00:00 -1°C° 0 mm 3 mps 737 mmHg 86%
    01:00 -1°C° 0 mm 3 mps 737 mmHg 86%
    02:00 -1°C° 0 mm 3 mps 738 mmHg 86%
    03:00 -1°C° 0 mm 3 mps 738 mmHg 86%
    04:00 -1°C° 0 mm 3 mps 738 mmHg 86%
    05:00 -1°C° 0.1 mm 3 mps 739 mmHg 86%
    06:00 -1°C° 0.1 mm 2 mps 739 mmHg 87%
    07:00 -1°C° 0.1 mm 2 mps 740 mmHg 88%
    08:00 0°C° 0.1 mm 3 mps 740 mmHg 87%
    09:00 0°C° 0.1 mm 3 mps 741 mmHg 86%
    10:00 0°C° 0.1 mm 3 mps 741 mmHg 85%
    11:00 0°C° 0.1 mm 3 mps 742 mmHg 83%
    12:00 0°C° 0.1 mm 3 mps 742 mmHg 82%
    13:00 +1°C° 0.1 mm 3 mps 742 mmHg 80%
    14:00 0°C° 0.1 mm 3 mps 743 mmHg 82%
    15:00 0°C° 0.1 mm 3 mps 743 mmHg 83%
    16:00 -1°C° 0.1 mm 3 mps 744 mmHg 84%
    17:00 -1°C° 0 mm 3 mps 744 mmHg 85%
    18:00 -2°C° 0 mm 2 mps 745 mmHg 87%
    19:00 -2°C° 0 mm 2 mps 745 mmHg 88%
    20:00 -2°C° 0.1 mm 2 mps 745 mmHg 88%
    21:00 -2°C° 0.1 mm 2 mps 746 mmHg 88%
    22:00 -2°C° 0.1 mm 2 mps 746 mmHg 89%
    23:00 -2°C° 0.1 mm 2 mps 746 mmHg 89%

    18 December, Monday

    Time Temperature Precipitation Wind Pressure Humidity
    00:00 -2°C° 0.1 mm 2 mps 746 mmHg 88%
    01:00 -2°C° 0.1 mm 2 mps 746 mmHg 88%
    02:00 -3°C° 0 mm 2 mps 747 mmHg 88%
    03:00 -3°C° 0 mm 2 mps 747 mmHg 89%
    04:00 -1°C° 0 mm 1 mps 747 mmHg 89%
    05:00 -1°C° 0 mm 1 mps 747 mmHg 89%
    06:00 -1°C° 0 mm 1 mps 747 mmHg 90%
    07:00 -1°C° 0 mm 1 mps 747 mmHg 91%
    08:00 -1°C° 0 mm 1 mps 747 mmHg 88%
    09:00 0°C° 0 mm 1 mps 747 mmHg 86%
    10:00 0°C° 0 mm 1 mps 747 mmHg 83%
    11:00 +1°C° 0 mm 1 mps 747 mmHg 80%
    12:00 +1°C° 0 mm 1 mps 746 mmHg 77%
    13:00 +1°C° 0 mm 1 mps 746 mmHg 74%
    14:00 +1°C° 0 mm 1 mps 746 mmHg 78%
    15:00 0°C° 0 mm 1 mps 746 mmHg 81%
    16:00 0°C° 0 mm 1 mps 746 mmHg 84%
    17:00 0°C° 0 mm 1 mps 746 mmHg 85%
    18:00 -3°C° 0 mm 2 mps 746 mmHg 86%
    19:00 -3°C° 0 mm 2 mps 746 mmHg 88%
    20:00 -3°C° 0 mm 2 mps 746 mmHg 88%
    21:00 -3°C° 0 mm 2 mps 746 mmHg 88%
    22:00 -3°C° 0 mm 2 mps 746 mmHg 88%
    23:00 -4°C° 0 mm 2 mps 746 mmHg 88%
    Show more